Location: Bergnershof
(48.9468°N, 10.9431°E)
Time: 00:55:43
(UTC+00:00)

Cosmos 1844 Rocket - Pass Details

Date: 18 June 2021
Orbit: 823 x 846 km, 71.0° (Epoch: 30 July)

Event Time Altitude Azimuth Distance (km) Brightness Sun altitude
Rises 19:59:43 0° 332° (NNW) 3,412 7.6 -5.3°
Reaches altitude 10° 20:02:12 10° 335° (NNW) 2,475 6.6 -5.6°
Maximum altitude 20:07:52 69° 59° (ENE) 909 2.9 -6.2°
Drops below altitude 10° 20:13:31 10° 143° (SE) 2,464 4.4 -6.8°
Enters shadow 20:13:56 - 143° (SE) 2,620 4.6 -6.9°
